TimeEST,TemperatureF,Dew PointF,Humidity,Sea Level PressureIn,VisibilityMPH,Wind Direction,Wind SpeedMPH,Gust SpeedMPH,PrecipitationIn,Events,Conditions,WindDirDegrees,DateUTC
12:55 AM,13.5,0.1,55,30.30,10.0,West,3.5,-,N/A,,Clear,260,2013-01-27 05:55:00
1:55 AM,9.1,-0.8,64,30.32,10.0,Calm,Calm,-,N/A,,Clear,0,2013-01-27 06:55:00
2:55 AM,10.8,1.2,65,30.33,10.0,West,5.8,-,N/A,,Clear,260,2013-01-27 07:55:00
3:55 AM,9.5,0.7,67,30.34,10.0,West,4.6,-,N/A,,Clear,280,2013-01-27 08:55:00
4:55 AM,8.4,1.0,72,30.35,10.0,WSW,8.1,-,N/A,,Clear,250,2013-01-27 09:55:00
5:55 AM,9.9,2.1,71,30.37,10.0,SW,4.6,-,N/A,,Clear,230,2013-01-27 10:55:00
6:55 AM,7.7,0.9,74,30.38,10.0,Calm,Calm,-,N/A,,Clear,0,2013-01-27 11:55:00
7:55 AM,9.0,2.3,74,30.41,10.0,Calm,Calm,-,N/A,,Clear,0,2013-01-27 12:55:00
8:55 AM,16.9,4.3,58,30.43,10.0,WNW,3.5,-,N/A,,Clear,300,2013-01-27 13:55:00
9:55 AM,20.7,1.8,44,30.44,10.0,NW,6.9,-,N/A,,Clear,310,2013-01-27 14:55:00
10:55 AM,23.5,0.5,37,30.46,10.0,NNW,8.1,-,N/A,,Clear,330,2013-01-27 15:55:00
11:55 AM,26.4,-0.0,32,30.45,10.0,West,5.8,-,N/A,,Clear,270,2013-01-27 16:55:00
12:55 PM,28.9,-0.4,28,30.43,10.0,WNW,10.4,-,N/A,,Clear,300,2013-01-27 17:55:00
1:55 PM,30.6,-2.6,24,30.42,10.0,Variable,4.6,-,N/A,,Clear,0,2013-01-27 18:55:00
2:55 PM,31.6,-2.6,23,30.41,10.0,NW,10.4,-,N/A,,Clear,320,2013-01-27 19:55:00
3:55 PM,30.2,-2.2,25,30.43,10.0,NW,10.4,-,N/A,,Clear,320,2013-01-27 20:55:00
4:55 PM,25.7,-1.3,31,30.46,10.0,NW,9.2,-,N/A,,Clear,310,2013-01-27 21:55:00
5:55 PM,23.4,-0.0,36,30.48,10.0,West,9.2,-,N/A,,Clear,270,2013-01-27 22:55:00
6:55 PM,18.1,0.7,47,30.47,10.0,NNE,3.5,-,N/A,,Clear,20,2013-01-27 23:55:00
7:55 PM,16.3,4.1,59,30.48,10.0,Calm,Calm,-,N/A,,Clear,0,2013-01-28 00:55:00
8:55 PM,17.4,-0.6,45,30.48,10.0,Variable,6.9,-,N/A,,Clear,0,2013-01-28 01:55:00
9:55 PM,16.5,4.3,59,30.48,10.0,Calm,Calm,-,N/A,,Overcast,0,2013-01-28 02:55:00
10:55 PM,9.7,4.6,80,30.48,10.0,Calm,Calm,-,N/A,,Clear,0,2013-01-28 03:55:00
11:55 PM,11.1,5.9,80,30.47,10.0,Calm,Calm,-,N/A,,Clear,0,2013-01-28 04:55:00